,,���z��,���z��,����,����
DATE,TIME,�z��l(kWh),���ђl(kWh),�z��l(kWh),���ђl(kWh)
2022/1/1,0:30,0,0,47645,47100
2022/1/1,1:00,0,0,47166,47300
2022/1/1,1:30,0,0,46739,47700
2022/1/1,2:00,0,0,46370,48500
2022/1/1,2:30,0,0,46025,48100
2022/1/1,3:00,0,0,45728,48600
2022/1/1,3:30,0,0,45570,45600
2022/1/1,4:00,0,0,45575,50700
2022/1/1,4:30,0,0,45651,49400
2022/1/1,5:00,0,0,45757,48500
2022/1/1,5:30,0,0,45699,46000
2022/1/1,6:00,0,0,45522,46400
2022/1/1,6:30,0,0,45057,47700
2022/1/1,7:00,0,0,44137,46300
2022/1/1,7:30,114,0,42522,43400
2022/1/1,8:00,8067,2810,40796,41500
2022/1/1,8:30,17696,4676,38903,40100
2022/1/1,9:00,27219,12102,36991,34400
2022/1/1,9:30,36777,13454,35146,31300
2022/1/1,10:00,45566,24745,33454,29400
2022/1/1,10:30,53234,24246,32011,23200
2022/1/1,11:00,59211,32830,30923,23200
2022/1/1,11:30,65300,41125,30166,22300
2022/1/1,12:00,67327,48947,29567,25700
2022/1/1,12:30,69866,47044.1,28939,21600
2022/1/1,13:00,70464,46747.1,28143,20600
2022/1/1,13:30,65632,37203.4,27142,18600
2022/1/1,14:00,58579,38224.1,25934,17900
2022/1/1,14:30,49012,29409.1,24462,15300
2022/1/1,15:00,39395,27187,22689,14400
2022/1/1,15:30,27768,18360,20528,14400
2022/1/1,16:00,17145,12923,18112,11100
2022/1/1,16:30,5441,3927,15682,7100
2022/1/1,17:00,0,2,13429,5900
2022/1/1,17:30,0,0,11512,5700
2022/1/1,18:00,0,0,9931,3300
2022/1/1,18:30,0,0,8589,3300
2022/1/1,19:00,0,0,7467,4200
2022/1/1,19:30,0,0,6494,3000
2022/1/1,20:00,0,0,5699,1900
2022/1/1,20:30,0,0,5195,1200
2022/1/1,21:00,0,0,5004,1100
2022/1/1,21:30,0,0,5100,1300
2022/1/1,22:00,0,0,5373,800
2022/1/1,22:30,0,0,5713,2100
2022/1/1,23:00,0,0,6025,2300
2022/1/1,23:30,0,0,6360,1800
2022/1/2,0:00,0,0,6820,2500
2022/1/2,0:30,0,0,5291,3200
2022/1/2,1:00,0,0,5632,3200
2022/1/2,1:30,0,0,6197,4600
2022/1/2,2:00,0,0,6868,4600
2022/1/2,2:30,0,0,7645,5300
2022/1/2,3:00,0,0,8464,5900
2022/1/2,3:30,0,0,9384,4200
2022/1/2,4:00,0,0,10314,3300
2022/1/2,4:30,0,0,11268,3600
2022/1/2,5:00,0,0,12365,4400
2022/1/2,5:30,0,0,13779,4500
2022/1/2,6:00,0,0,15677,4500
2022/1/2,6:30,0,0,17987,5600
2022/1/2,7:00,0,0,20801,9000
2022/1/2,7:30,333,300,23945,15200
2022/1/2,8:00,10636,10281,27621,17400
2022/1/2,8:30,24619,26938.2,31709,18100
2022/1/2,9:00,38348,53282.7,35745,16100
2022/1/2,9:30,55511,76573.6,39105,14300
2022/1/2,10:00,67317,98625.2,42090,17100
2022/1/2,10:30,80680,125656.7,44722,21500
2022/1/2,11:00,84544,146584,46715,26500
2022/1/2,11:30,91068,167817.4,47765,36400
2022/1/2,12:00,90526,159985.1,48125,44800
2022/1/2,12:30,93076,156049.6,47966,49700
2022/1/2,13:00,89083,129181.4,47578,49800
2022/1/2,13:30,81595,113884,47267,44900
2022/1/2,14:00,67733,82014.9,47209,44800
2022/1/2,14:30,53397,62356.6,47372,39200
2022/1/2,15:00,44612,36862.2,47434,36500
2022/1/2,15:30,29998,15500.5,46926,37500
2022/1/2,16:00,17954,10477.1,45858,39300
2022/1/2,16:30,6006,4272.5,45081,40100
2022/1/2,17:00,0,1608,46303,31700
2022/1/2,17:30,0,0,49002,36600
2022/1/2,18:00,0,0,50583,38900
2022/1/2,18:30,0,0,50042,34400
2022/1/2,19:00,0,0,47569,34500
2022/1/2,19:30,0,0,44214,47100
2022/1/2,20:00,0,0,41582,47300
2022/1/2,20:30,0,0,39277,48100
2022/1/2,21:00,0,0,36914,46600
2022/1/2,21:30,0,0,33665,44900
2022/1/2,22:00,0,0,29701,44100
2022/1/2,22:30,0,0,25838,43900
2022/1/2,23:00,0,0,22358,43700
2022/1/2,23:30,0,0,19286,39800
2022/1/3,0:00,0,0,16578,32300
2022/1/3,0:30,0,0,19914,26100
2022/1/3,1:00,0,0,17384,21500
2022/1/3,1:30,0,0,15093,17200
2022/1/3,2:00,0,0,13276,12100
2022/1/3,2:30,0,0,11786,8000
2022/1/3,3:00,0,0,10602,4700
2022/1/3,3:30,0,0,9471,4300
2022/1/3,4:00,0,0,8306,2900
2022/1/3,4:30,0,0,7333,1900
2022/1/3,5:00,0,0,6604,2300
2022/1/3,5:30,0,0,6111,2200
2022/1/3,6:00,0,0,5675,2100
2022/1/3,6:30,0,0,4874,1200
2022/1/3,7:00,0,0,3858,1100
2022/1/3,7:30,254,316,3887,800
2022/1/3,8:00,11164,8425.5,4941,1200
2022/1/3,8:30,27280,19916,5066,1300
2022/1/3,9:00,43870,35889.6,5574,1200
2022/1/3,9:30,61371,57287.5,6796,700
2022/1/3,10:00,73891,84052.4,8512,700
2022/1/3,10:30,85604,131813.8,10592,1100
2022/1/3,11:00,91719,145065.5,13156,1200
2022/1/3,11:30,96815,144118.2,16358,1700
2022/1/3,12:00,91756,143549.8,19598,2000
2022/1/3,12:30,91797,127880.9,21299,2200
2022/1/3,13:00,91963,126380.6,21721,3500
2022/1/3,13:30,88553,104025.4,22224,4500
2022/1/3,14:00,77039,68155.2,23485,4600
2022/1/3,14:30,65149,54603.3,25675,9200
2022/1/3,15:00,52007,37261.4,27980,12600
2022/1/3,15:30,36205,28360.5,29188,15100
2022/1/3,16:00,21341,16115.9,29054,17600
2022/1/3,16:30,7474,5420.9,28167,15000
2022/1/3,17:00,0,100.1,27257,11000
2022/1/3,17:30,0,0,27022,20700
2022/1/3,18:00,0,0,27357,18400
2022/1/3,18:30,0,0,27654,25100
2022/1/3,19:00,0,0,27726,25900
2022/1/3,19:30,0,0,27736,25100
2022/1/3,20:00,0,0,27817,21400
2022/1/3,20:30,0,0,28086,23000
2022/1/3,21:00,0,0,28603,32100
2022/1/3,21:30,0,0,29471,28600
2022/1/3,22:00,0,0,30832,31100
2022/1/3,22:30,0,0,32634,29300
2022/1/3,23:00,0,0,34647,33900
2022/1/3,23:30,0,0,36564,31800
2022/1/4,0:00,0,0,38290,37900
2022/1/4,0:30,0,0,40082,36300
2022/1/4,1:00,0,0,41338,37900
2022/1/4,1:30,0,0,42392,41900
2022/1/4,2:00,0,0,43126,45200
2022/1/4,2:30,0,0,43715,43400
2022/1/4,3:00,0,0,44142,43800
2022/1/4,3:30,0,0,44286,50700
2022/1/4,4:00,0,0,44238,47500
2022/1/4,4:30,0,0,44137,47400
2022/1/4,5:00,0,100,44147,42200
2022/1/4,5:30,0,0,44367,39200
2022/1/4,6:00,0,100,44669,36500
2022/1/4,6:30,0,0,44818,35400
2022/1/4,7:00,0,100,44789,38100
2022/1/4,7:30,126,100.1,44842,37000
2022/1/4,8:00,9989,4033.8,45143,36800
2022/1/4,8:30,23452,10811.2,45695,32800
2022/1/4,9:00,36921,27719.1,46217,30800
2022/1/4,9:30,47101,28292.7,46461,31100
2022/1/4,10:00,56814,35670.4,46409,31200
2022/1/4,10:30,66376,38817.6,46203,32900
2022/1/4,11:00,77484,40673.3,46145,35500
2022/1/4,11:30,85642,34309.8,46332,39700
2022/1/4,12:00,88500,32026.4,46591,39300
2022/1/4,12:30,89299,34143.3,46739,36400
2022/1/4,13:00,87477,39622.8,46687,41700
2022/1/4,13:30,84636,33009.9,46495,44800
2022/1/4,14:00,74338,30737.6,46145,46900
2022/1/4,14:30,62909,21987.8,45685,50000
2022/1/4,15:00,49359,24028.2,45191,47800
2022/1/4,15:30,35844,13097.7,44348,47400
2022/1/4,16:00,22153,9974.8,43188,46700
2022/1/4,16:30,8260,1919.7,41822,47700
2022/1/4,17:00,0,2,40384,45400
2022/1/4,17:30,0,0,39009,46500
2022/1/4,18:00,0,0,37767,45200
2022/1/4,18:30,0,0,36497,45200
2022/1/4,19:00,0,0,35160,44500
2022/1/4,19:30,0,0,33765,46600
2022/1/4,20:00,0,0,32351,46700
2022/1/4,20:30,0,0,30947,48000
2022/1/4,21:00,0,0,29639,44300
2022/1/4,21:30,0,0,28460,37700
2022/1/4,22:00,0,0,27415,44600
2022/1/4,22:30,0,0,26490,42400
2022/1/4,23:00,0,0,25675,42400
2022/1/4,23:30,0,0,24903,43400
2022/1/5,0:00,0,0,24156,41500
2022/1/5,0:30,0,0,25411,37800
2022/1/5,1:00,0,0,25076,30800
2022/1/5,1:30,0,0,24750,32000
2022/1/5,2:00,0,0,24462,28500
2022/1/5,2:30,0,0,24218,30300
2022/1/5,3:00,0,0,23969,28500
2022/1/5,3:30,0,0,23705,21500
2022/1/5,4:00,0,0,23389,23100
2022/1/5,4:30,0,0,22977,20800
2022/1/5,5:00,0,0,22454,23500
2022/1/5,5:30,0,0,21783,24000
2022/1/5,6:00,0,0,21021,30000
2022/1/5,6:30,0,0,20250,28100
2022/1/5,7:00,0,0,19492,21700
2022/1/5,7:30,163,2,18697,22600
2022/1/5,8:00,11234,6127.1,17848,19500
2022/1/5,8:30,25075,10713.9,16923,21800
2022/1/5,9:00,39275,22838.6,16046,16400
2022/1/5,9:30,51993,42429.6,15337,17100
2022/1/5,10:00,63634,52217.6,14824,16300
2022/1/5,10:30,77293,88325.1,14422,16100
2022/1/5,11:00,84779,124065.8,14100,14900
2022/1/5,11:30,96881,117434.7,13798,14900
2022/1/5,12:00,100630,121785.8,13497,11900
2022/1/5,12:30,102254,126253.6,13171,9000
2022/1/5,13:00,98135,141588.4,12797,9500
2022/1/5,13:30,93459,119923.4,12394,8900
2022/1/5,14:00,84209,98342.7,11948,7800
2022/1/5,14:30,73701,89664.7,11455,7700
2022/1/5,15:00,60042,70291.8,10937,6300
2022/1/5,15:30,43234,50159,10329,5600
2022/1/5,16:00,26583,27744.9,9653,3000
2022/1/5,16:30,9791,10940.5,8958,2800
2022/1/5,17:00,2,3503.2,8311,1400
2022/1/5,17:30,0,0,7716,1100
2022/1/5,18:00,0,0,7127,1800
2022/1/5,18:30,0,0,6547,2300
2022/1/5,19:00,0,0,6053,2600
2022/1/5,19:30,0,0,5608,3000
2022/1/5,20:00,0,0,5234,3700
2022/1/5,20:30,0,0,4975,2400
2022/1/5,21:00,0,0,4836,1800
2022/1/5,21:30,0,0,4740,1100
2022/1/5,22:00,0,0,4644,1100
2022/1/5,22:30,0,0,4544,1700
2022/1/5,23:00,0,0,4390,1200
2022/1/5,23:30,0,0,4179,600
2022/1/6,0:00,0,0,3978,400
2022/1/6,0:30,0,0,4812,1100
2022/1/6,1:00,0,0,4841,1300
2022/1/6,1:30,0,0,4841,1400
2022/1/6,2:00,0,0,4822,1400
2022/1/6,2:30,0,0,4793,1100
2022/1/6,3:00,0,0,4702,1400
2022/1/6,3:30,0,0,4692,2000
2022/1/6,4:00,0,0,4793,1500
2022/1/6,4:30,0,0,4917,1600
2022/1/6,5:00,0,0,4994,1800
2022/1/6,5:30,0,0,5076,2100
2022/1/6,6:00,0,0,5143,2100
2022/1/6,6:30,0,0,5210,2200
2022/1/6,7:00,0,0,5286,2200
2022/1/6,7:30,374,505.3,5373,2100
2022/1/6,8:00,15442,9862.1,5464,1600
2022/1/6,8:30,36481,20592.7,5540,1200
2022/1/6,9:00,57722,55138.9,5574,900
2022/1/6,9:30,80785,102919.7,5540,700
2022/1/6,10:00,99050,142080,5440,200
2022/1/6,10:30,118877,161606.1,5263,200
2022/1/6,11:00,131051,177131.9,5013,100
2022/1/6,11:30,142376,204098.8,4735,200
2022/1/6,12:00,145740,202868.6,4548,400
2022/1/6,12:30,150434,206112.8,4625,500
2022/1/6,13:00,152119,213501.1,5195,700
2022/1/6,13:30,151445,202502.4,5847,900
2022/1/6,14:00,137121,197051,5818,2500
2022/1/6,14:30,118993,173543.1,5574,1400
2022/1/6,15:00,96122,145654.5,5373,200
2022/1/6,15:30,68042,102401.3,5191,400
2022/1/6,16:00,42137,66159.2,4524,200
2022/1/6,16:30,16376,26173.6,3949,300
2022/1/6,17:00,152,5423.6,3959,200
2022/1/6,17:30,0,0,4237,500
2022/1/6,18:00,0,0,4615,900
2022/1/6,18:30,0,0,4615,2000
2022/1/6,19:00,0,0,4625,2200
2022/1/6,19:30,0,0,4769,3000
2022/1/6,20:00,0,0,5042,3300
2022/1/6,20:30,0,0,5536,5300
2022/1/6,21:00,0,0,5977,3900
2022/1/6,21:30,0,0,6092,3600
2022/1/6,22:00,0,0,6001,7500
2022/1/6,22:30,0,0,6394,7100
2022/1/6,23:00,0,0,8718,14400
2022/1/6,23:30,0,0,12960,31000
2022/1/7,0:00,0,0,17877,43700
2022/1/7,0:30,0,0,19310,47000
2022/1/7,1:00,0,0,19555,49100
2022/1/7,1:30,0,0,25258,49200
2022/1/7,2:00,0,0,34235,58300
2022/1/7,2:30,0,0,40001,58300
2022/1/7,3:00,0,0,41443,55500
2022/1/7,3:30,0,0,40571,51100
2022/1/7,4:00,0,0,38295,49100
2022/1/7,4:30,0,0,35002,45600
2022/1/7,5:00,0,0,31105,41100
2022/1/7,5:30,0,0,27281,37800
2022/1/7,6:00,0,0,23921,34400
2022/1/7,6:30,0,0,21203,29800
2022/1/7,7:00,0,0,18970,26000
2022/1/7,7:30,115,100.1,17173,27600
2022/1/7,8:00,11678,5620.3,15720,24500
2022/1/7,8:30,27254,13727.6,14498,29800
2022/1/7,9:00,42149,26030.4,13583,25400
2022/1/7,9:30,57070,38375.2,13127,30100
2022/1/7,10:00,70017,57390,13080,27500
2022/1/7,10:30,80899,60427.4,13305,21800
2022/1/7,11:00,88501,69352.2,13664,21100
2022/1/7,11:30,95756,82509,14048,22500
2022/1/7,12:00,98882,89763.2,14398,22700
2022/1/7,12:30,98720,90677.9,14776,22900
2022/1/7,13:00,95427,85029.8,15169,20600
2022/1/7,13:30,89770,77360.8,15538,17600
2022/1/7,14:00,80458,95314.1,15840,21700
2022/1/7,14:30,69653,69229.6,16037,18900
2022/1/7,15:00,57573,56757,16051,16300
2022/1/7,15:30,43478,34728.8,15826,20100
2022/1/7,16:00,26908,22627.3,15409,23000
2022/1/7,16:30,10415,6647.5,14886,17900
2022/1/7,17:00,61,1809.1,14340,22800
2022/1/7,17:30,0,0,13851,22800
2022/1/7,18:00,0,0,13305,22800
2022/1/7,18:30,0,0,12567,21200
2022/1/7,19:00,0,0,11733,17900
2022/1/7,19:30,0,0,10966,10900
2022/1/7,20:00,0,0,10305,10300
2022/1/7,20:30,0,0,9681,9100
2022/1/7,21:00,0,0,8929,8600
2022/1/7,21:30,0,0,8248,7900
2022/1/7,22:00,0,0,7601,8600
2022/1/7,22:30,0,0,6983,6300
2022/1/7,23:00,0,0,6427,6300
2022/1/7,23:30,0,0,5871,7600
2022/1/8,0:00,0,0,5368,6700
2022/1/8,0:30,0,0,5430,6500
2022/1/8,1:00,0,0,4798,6300
2022/1/8,1:30,0,0,4261,5000
2022/1/8,2:00,0,0,3815,4500
2022/1/8,2:30,0,0,3566,3900
2022/1/8,3:00,0,0,3523,2200
2022/1/8,3:30,0,0,3609,2600
2022/1/8,4:00,0,0,3786,2500
2022/1/8,4:30,0,0,4026,2000
2022/1/8,5:00,0,0,4337,1900
2022/1/8,5:30,0,0,4644,2200
2022/1/8,6:00,0,0,4874,1600
2022/1/8,6:30,0,0,4989,1200
2022/1/8,7:00,0,0,5090,1600
2022/1/8,7:30,472,402.4,5128,2000
2022/1/8,8:00,18716,10856.5,5229,2900
2022/1/8,8:30,44343,24263.3,5531,5600
2022/1/8,9:00,71219,54627.6,5938,5700
2022/1/8,9:30,98979,89761.4,6465,3900
2022/1/8,10:00,123067,137807.7,7002,4000
2022/1/8,10:30,148133,179083.7,7611,4300
2022/1/8,11:00,163866,216855.9,8272,3500
2022/1/8,11:30,185112,237943,8963,5000
2022/1/8,12:00,190194,249284.5,9753,7100
2022/1/8,12:30,193980,252756.6,10798,6500
2022/1/8,13:00,189243,254082.7,12193,6200
2022/1/8,13:30,182175,238764.6,13760,6800
2022/1/8,14:00,162870,221883.9,15567,6300
2022/1/8,14:30,140291,192399.4,17590,9100
2022/1/8,15:00,110676,158279.2,19698,8600
2022/1/8,15:30,79216,112719.7,21846,7200
2022/1/8,16:00,48191,73681.8,23998,8300
2022/1/8,16:30,18965,30777,26413,9800
2022/1/8,17:00,330,7231.9,28987,12300
2022/1/8,17:30,0,0,31757,14900
2022/1/8,18:00,0,0,34178,17300
2022/1/8,18:30,0,0,35946,19300
2022/1/8,19:00,0,0,37178,20700
2022/1/8,19:30,0,0,38630,26600
2022/1/8,20:00,0,0,40317,28500
2022/1/8,20:30,0,0,41793,33300
2022/1/8,21:00,0,0,42517,36200
2022/1/8,21:30,0,0,42134,42700
2022/1/8,22:00,0,0,41022,42200
2022/1/8,22:30,0,0,39982,44800
2022/1/8,23:00,0,0,39244,49800
2022/1/8,23:30,0,0,38568,50200
2022/1/9,0:00,0,0,37676,50700
2022/1/9,0:30,0,0,46045,46800
2022/1/9,1:00,0,0,44889,45600
2022/1/9,1:30,0,0,43246,40700
2022/1/9,2:00,0,0,41731,37400
2022/1/9,2:30,0,0,40720,41400
2022/1/9,3:00,0,0,39919,35000
2022/1/9,3:30,0,0,38707,35000
2022/1/9,4:00,0,0,36957,36500
2022/1/9,4:30,0,0,35136,33400
2022/1/9,5:00,0,0,33190,32900
2022/1/9,5:30,0,0,31518,27800
2022/1/9,6:00,0,0,30046,29800
2022/1/9,6:30,0,0,28469,30600
2022/1/9,7:00,0,0,26682,26700
2022/1/9,7:30,210,500.1,24755,19200
2022/1/9,8:00,12274,6908.3,22881,22700
2022/1/9,8:30,29514,12322,21160,23500
2022/1/9,9:00,45527,22404.7,19627,18700
2022/1/9,9:30,60243,28297.3,18309,14200
2022/1/9,10:00,73702,42632.2,17158,13800
2022/1/9,10:30,84050,42415,16195,7400
2022/1/9,11:00,92124,56788.7,15433,6200
2022/1/9,11:30,93196,59476.6,14733,2600
2022/1/9,12:00,93390,59128.6,13899,3400
2022/1/9,12:30,94398,43082.7,12715,3400
2022/1/9,13:00,88878,42068.4,11273,3600
2022/1/9,13:30,83576,44613,9916,3900
2022/1/9,14:00,77559,38240.9,8915,4200
2022/1/9,14:30,66069,22509.5,8483,3500
2022/1/9,15:00,54049,17651.4,8148,5000
2022/1/9,15:30,40724,20692.1,7668,5400
2022/1/9,16:00,26046,21658.4,6825,4900
2022/1/9,16:30,11102,11089.7,5488,5900
2022/1/9,17:00,103,3009.5,3868,4500
2022/1/9,17:30,0,0,2823,5500
2022/1/9,18:00,0,0,2602,6900
2022/1/9,18:30,0,0,2665,6600
2022/1/9,19:00,0,0,2670,11400
2022/1/9,19:30,0,0,2670,13000
2022/1/9,20:00,0,0,2689,14300
2022/1/9,20:30,0,0,2732,16700
2022/1/9,21:00,0,0,2948,21200
2022/1/9,21:30,0,0,3154,25200
2022/1/9,22:00,0,0,3288,19800
2022/1/9,22:30,0,0,3393,18100
2022/1/9,23:00,0,0,3489,17200
2022/1/9,23:30,0,0,3623,14300
2022/1/10,0:00,0,0,4371,12900
2022/1/10,0:30,0,0,9993,10300
2022/1/10,1:00,0,0,9854,7700
2022/1/10,1:30,0,0,9681,6800
2022/1/10,2:00,0,0,9547,8100
2022/1/10,2:30,0,0,9403,9500
2022/1/10,3:00,0,0,9269,9100
2022/1/10,3:30,0,0,9173,8500
2022/1/10,4:00,0,0,9092,7200
2022/1/10,4:30,0,0,9034,7400
2022/1/10,5:00,0,0,9025,6800
2022/1/10,5:30,0,0,9054,7400
2022/1/10,6:00,0,0,9058,10000
2022/1/10,6:30,0,0,8910,13000
2022/1/10,7:00,0,0,8627,13200
2022/1/10,7:30,433,1520.7,8311,13100
2022/1/10,8:00,21486,20240.9,8033,11400
2022/1/10,8:30,50891,52409.3,7827,8000
2022/1/10,9:00,79611,98150.1,7673,4500
2022/1/10,9:30,107561,140177.4,7539,3300
2022/1/10,10:00,132131,180811.4,7391,3300
2022/1/10,10:30,153972,216726.7,7252,3300
2022/1/10,11:00,170129,248719.5,7127,4500
2022/1/10,11:30,184031,264718.5,6997,4500
2022/1/10,12:00,188644,275561.7,6950,4200
2022/1/10,12:30,189665,261091.7,6983,5800
2022/1/10,13:00,183672,257949,7026,6100
2022/1/10,13:30,176144,236327,7108,5300
2022/1/10,14:00,162118,187254.5,7242,4100
2022/1/10,14:30,144092,130567.4,7381,3600
2022/1/10,15:00,118088,92587,7520,3800
2022/1/10,15:30,88649,64576.5,7673,3200
2022/1/10,16:00,56750,52170,7846,700
2022/1/10,16:30,24629,27842.3,8066,300
2022/1/10,17:00,872,9749.1,8431,1600
2022/1/10,17:30,0,0,8881,4300
2022/1/10,18:00,0,0,9221,11200
2022/1/10,18:30,0,0,9255,14700
2022/1/10,19:00,0,0,9126,14900
2022/1/10,19:30,0,0,9116,18000
2022/1/10,20:00,0,0,9226,19600
2022/1/10,20:30,0,0,9332,20300
2022/1/10,21:00,0,0,9317,21500
2022/1/10,21:30,0,0,9149,25300
2022/1/10,22:00,0,0,8867,27300
2022/1/10,22:30,0,0,8594,24800
2022/1/10,23:00,0,0,8402,24800
2022/1/10,23:30,0,0,8162,23400
2022/1/11,0:00,0,0,7860,20100
2022/1/11,0:30,0,0,10175,16700
2022/1/11,1:00,0,0,10007,13800
2022/1/11,1:30,0,0,9974,11300
2022/1/11,2:00,0,0,10520,12000
2022/1/11,2:30,0,0,11862,9600
2022/1/11,3:00,0,0,13803,10400
2022/1/11,3:30,0,0,16085,12500
2022/1/11,4:00,0,0,18505,13100
2022/1/11,4:30,0,0,21208,17500
2022/1/11,5:00,0,0,24242,24200
2022/1/11,5:30,0,0,27779,25600
2022/1/11,6:00,0,0,31302,21700
2022/1/11,6:30,0,0,34393,20800
2022/1/11,7:00,0,0,37240,22500
2022/1/11,7:30,27,100.1,39891,26800
2022/1/11,8:00,4548,3414.4,42680,27500
2022/1/11,8:30,10888,5285.7,45426,31400
2022/1/11,9:00,15446,8301.1,46500,35300
2022/1/11,9:30,19129,7502.8,45421,38700
2022/1/11,10:00,22650,10029.8,42498,38300
2022/1/11,10:30,24885,12774,38664,38600
2022/1/11,11:00,26574,16582,35984,43100
2022/1/11,11:30,27644,16610.9,35548,41500
2022/1/11,12:00,25767,19004.5,36406,40800
2022/1/11,12:30,27365,22074.4,36468,36000
2022/1/11,13:00,27638,26179,35261,41800
2022/1/11,13:30,27741,21942.5,33497,34700
2022/1/11,14:00,26928,22307.1,31666,31200
2022/1/11,14:30,23700,21809,30645,36600
2022/1/11,15:00,19215,20101.1,30722,35200
2022/1/11,15:30,14444,10535.8,31417,43300
2022/1/11,16:00,9478,7090.3,32375,45500
2022/1/11,16:30,4218,2336.3,33507,51000
2022/1/11,17:00,4,709,34791,50100
2022/1/11,17:30,0,0,36277,38500
2022/1/11,18:00,0,0,37422,42000
2022/1/11,18:30,0,0,37873,38400
2022/1/11,19:00,0,0,37930,41900
2022/1/11,19:30,0,0,38376,41000
2022/1/11,20:00,0,0,39181,39500
2022/1/11,20:30,0,0,40006,30100
2022/1/11,21:00,0,0,40614,28400
2022/1/11,21:30,0,0,41017,44300
2022/1/11,22:00,0,0,42177,45200
2022/1/11,22:30,0,0,45565,45800
2022/1/11,23:00,0,0,49548,45900
2022/1/11,23:30,0,0,51968,51800
2022/1/12,0:00,0,0,52836,54400
2022/1/12,0:30,0,0,52630,55400
2022/1/12,1:00,0,0,52730,52100
2022/1/12,1:30,0,0,52745,51900
2022/1/12,2:00,0,0,52730,49200
2022/1/12,2:30,0,0,52764,51900
2022/1/12,3:00,0,0,52836,48900
2022/1/12,3:30,0,0,52927,46900
2022/1/12,4:00,0,0,53013,50300
2022/1/12,4:30,0,0,53114,47600
2022/1/12,5:00,0,0,53224,47600
2022/1/12,5:30,0,0,53339,39000
2022/1/12,6:00,0,0,53421,37600
2022/1/12,6:30,0,0,53406,38100
2022/1/12,7:00,0,0,53296,39200
2022/1/12,7:30,222,300,53133,40300
2022/1/12,8:00,13930,6811,52975,46600
2022/1/12,8:30,29149,13625.5,52788,45000
2022/1/12,9:00,46223,31518.1,52587,45000
2022/1/12,9:30,60857,49459.9,52409,44700
2022/1/12,10:00,74198,58631.4,52246,46900
2022/1/12,10:30,81980,62795.3,52098,39500
2022/1/12,11:00,89664,65904.8,51882,42500
2022/1/12,11:30,94300,86488.8,51643,45900
2022/1/12,12:00,95201,88353.3,51398,49600
2022/1/12,12:30,93803,94690.1,51106,46700
2022/1/12,13:00,93495,108846.7,50708,46400
2022/1/12,13:30,87391,87370.7,50200,47300
2022/1/12,14:00,79813,75253.6,49692,46800
2022/1/12,14:30,66393,43911.1,49155,46500
2022/1/12,15:00,53296,40076.7,48604,46300
2022/1/12,15:30,38784,25074.2,47971,48200
2022/1/12,16:00,24241,17666.4,47166,47500
2022/1/12,16:30,10136,7051,46169,47100
2022/1/12,17:00,433,2307.4,44904,49100
2022/1/12,17:30,0,0,43394,46400
2022/1/12,18:00,0,0,41678,45400
2022/1/12,18:30,0,0,40077,43900
2022/1/12,19:00,0,0,38395,39500
2022/1/12,19:30,0,0,36397,36500
2022/1/12,20:00,0,0,34321,38400
2022/1/12,20:30,0,0,32208,38700
2022/1/12,21:00,0,0,30362,35500
2022/1/12,21:30,0,0,28987,34100
2022/1/12,22:00,0,0,28062,35300
2022/1/12,22:30,0,0,27568,31800
2022/1/12,23:00,0,0,27257,33400
2022/1/12,23:30,0,0,26686,24200
2022/1/13,0:00,0,0,25781,25300
2022/1/13,0:30,0,0,19756,23700
2022/1/13,1:00,0,0,17350,20700
2022/1/13,1:30,0,0,14901,16600
2022/1/13,2:00,0,0,12648,13300
2022/1/13,2:30,0,0,11230,9700
2022/1/13,3:00,0,0,10084,15200
2022/1/13,3:30,0,0,8881,22100
2022/1/13,4:00,0,0,8014,26400
2022/1/13,4:30,0,0,8090,15400
2022/1/13,5:00,0,0,9193,14800
2022/1/13,5:30,0,0,11186,16700
2022/1/13,6:00,0,0,13338,13400
2022/1/13,6:30,0,0,14685,11900
2022/1/13,7:00,0,0,16784,11400
2022/1/13,7:30,42,100,21021,9900
2022/1/13,8:00,5665,1800,25924,11800
2022/1/13,8:30,12970,1551,29854,11800
2022/1/13,9:00,20863,4851,31383,4200
2022/1/13,9:30,27805,5653,32443,1300
2022/1/13,10:00,34581,9058.1,34307,200
2022/1/13,10:30,43071,12157,37643,100
2022/1/13,11:00,48692,20000.3,42196,0
2022/1/13,11:30,54954,18189.7,45752,300
2022/1/13,12:00,57881,23517.4,46620,7900
2022/1/13,12:30,59814,25300,46807,16500
2022/1/13,13:00,58818,29293.5,45560,13500
2022/1/13,13:30,55328,26225.2,41587,8300
2022/1/13,14:00,53629,34982.7,39541,18700
2022/1/13,14:30,47892,40777.3,39852,26800
2022/1/13,15:00,39064,29123.9,40624,23900
2022/1/13,15:30,26968,11618.1,40461,25200
2022/1/13,16:00,17623,6140.1,40633,30100
2022/1/13,16:30,7653,2242.2,41808,36200
2022/1/13,17:00,388,900,43408,41100
2022/1/13,17:30,0,0,44520,41700
2022/1/13,18:00,0,0,44894,39600
2022/1/13,18:30,0,0,44693,40100
2022/1/13,19:00,0,0,44760,41000
2022/1/13,19:30,0,0,46078,44000
2022/1/13,20:00,0,0,48407,44700
2022/1/13,20:30,0,0,50348,46900
2022/1/13,21:00,0,0,51504,46600
2022/1/13,21:30,0,0,51887,46700
2022/1/13,22:00,0,0,51853,48800
2022/1/13,22:30,0,0,51686,48600
2022/1/13,23:00,0,0,51470,48500
2022/1/13,23:30,0,0,51249,48600
2022/1/14,0:00,0,0,51053,47100
2022/1/14,0:30,0,0,51048,45900
2022/1/14,1:00,0,0,50900,46700
2022/1/14,1:30,0,0,50660,47700
2022/1/14,2:00,0,0,50315,47800
2022/1/14,2:30,0,0,49955,46800
2022/1/14,3:00,0,0,49682,47000
2022/1/14,3:30,0,0,49567,43900
2022/1/14,4:00,0,0,49558,41500
2022/1/14,4:30,0,0,49625,41200
2022/1/14,5:00,0,0,49706,42400
2022/1/14,5:30,0,0,49764,46000
2022/1/14,6:00,0,0,49749,44400
2022/1/14,6:30,0,0,49639,43400
2022/1/14,7:00,0,0,49447,42000
2022/1/14,7:30,226,100,49208,41700
2022/1/14,8:00,9907,2915,48968,42600
2022/1/14,8:30,21644,8261.4,48728,44500
2022/1/14,9:00,33605,14629,48513,46200
2022/1/14,9:30,43605,24425.2,48350,45800
2022/1/14,10:00,52935,28500.4,48211,46300
2022/1/14,10:30,61053,32589.4,48105,44000
2022/1/14,11:00,66335,46317.1,48005,46600
2022/1/14,11:30,73518,51895.3,47890,49100
2022/1/14,12:00,76932,60418.3,47770,50300
2022/1/14,12:30,77805,55127.1,47664,50400
2022/1/14,13:00,76340,58155.3,47573,52500
2022/1/14,13:30,69870,50921.8,47487,51600
2022/1/14,14:00,63773,49543.7,47391,54600
2022/1/14,14:30,54601,42388.3,47276,54600
2022/1/14,15:00,45035,37044.1,47070,52800
2022/1/14,15:30,32420,20347.5,46596,54400
2022/1/14,16:00,21253,16152.6,45834,53600
2022/1/14,16:30,9568,5858.2,44789,56100
2022/1/14,17:00,595,2414,43547,53900
2022/1/14,17:30,0,200,42344,52500
2022/1/14,18:00,0,0,41132,50900
2022/1/14,18:30,0,0,39752,47300
2022/1/14,19:00,0,0,38069,41800
2022/1/14,19:30,0,0,36234,39800
2022/1/14,20:00,0,0,34494,40600
2022/1/14,20:30,0,0,32773,41400
2022/1/14,21:00,0,0,31053,39100
2022/1/14,21:30,0,0,29370,38000
2022/1/14,22:00,0,0,27817,37600
2022/1/14,22:30,0,0,26341,34800
2022/1/14,23:00,0,0,24903,32100
2022/1/14,23:30,0,0,23490,30500
2022/1/15,0:00,0,0,22061,25600
2022/1/15,0:30,0,0,26892,26800
2022/1/15,1:00,0,0,25498,27600
2022/1/15,1:30,0,0,24041,24200
2022/1/15,2:00,0,0,22536,21000
2022/1/15,2:30,0,0,21112,19600
2022/1/15,3:00,0,0,19746,19200
2022/1/15,3:30,0,0,18424,18300
2022/1/15,4:00,0,0,17153,17300
2022/1/15,4:30,0,0,15965,17000